| time (UTC) | temp C | wind direction | speed KPH | gust KPH | rain 1hr cm | rain 24hr cm | rain mn cm | humidity % | barometer mb |
| 20260902133008 | 13 | 157 | 4.8 | 11.3 | 0.00 | 0.00 | 0.00 | 82 | 1021.0 |
| 20260902132108 | 12 | 154 | 4.8 | 11.3 | 0.00 | 0.00 | 0.00 | 83 | 1021.3 |
| 20260902131208 | 12 | 150 | 3.2 | 12.9 | 0.00 | 0.03 | 0.00 | 84 | 1021.2 |
| 20260902130310 | 13 | 146 | 4.8 | 12.9 | 0.00 | 0.03 | 0.00 | 80 | 1021.2 |
| 20260902125410 | 13 | 141 | 6.4 | 11.3 | 0.00 | 0.10 | 0.00 | 78 | 1021.2 |
| 20260902124722 | 13 | 149 | 6.4 | 11.3 | 0.00 | 0.13 | 0.00 | 81 | 1021.1 |
| 20260902123608 | 13 | 145 | 3.2 | 9.7 | 0.00 | 0.13 | 0.00 | 81 | 1021.2 |
| 20260902122708 | 13 | 147 | 3.2 | 11.3 | 0.00 | 0.13 | 0.00 | 80 | 1021.5 |
| 20260902121808 | 13 | 154 | 4.8 | 9.7 | 0.00 | 0.13 | 0.00 | 79 | 1021.5 |
| 20260902120908 | 13 | 153 | 4.8 | 11.3 | 0.00 | 0.13 | 0.00 | 76 | 1021.5 |
| 20260902120010 | 13 | 147 | 4.8 | 12.9 | 0.00 | 0.13 | 0.00 | 76 | 1021.7 |
| 20260902115110 | 13 | 145 | 4.8 | 11.3 | 0.00 | 0.13 | 0.00 | 74 | 1021.6 |
| 20260902114208 | 13 | 152 | 3.2 | 12.9 | 0.00 | 0.13 | 0.00 | 73 | 1021.6 |
| 20260902113308 | 14 | 151 | 4.8 | 12.9 | 0.00 | 0.13 | 0.00 | 75 | 1021.6 |
| 20260902112409 | 14 | 150 | 3.2 | 11.3 | 0.00 | 0.13 | 0.00 | 73 | 1021.7 |
| 20260902104557 | 15 | 157 | 4.8 | 6.4 | 0.00 | 0.13 | 0.00 | 68 | 1021.7 |
| 20260902103657 | 16 | 157 | 0.0 | 3.2 | 0.00 | 0.13 | 0.00 | 66 | 1021.6 |
| 20260902102757 | 15 | 157 | 0.0 | 3.2 | 0.00 | 0.13 | 0.00 | 68 | 1021.6 |
| 20260902102110 | 16 | 157 | 1.6 | 3.2 | 0.00 | 0.13 | 0.00 | 67 | 1021.8 |
| 20260902100957 | 15 | 157 | 3.2 | 6.4 | 0.00 | 0.13 | 0.00 | 70 | 1021.8 |
| 20260902100057 | 15 | 155 | 1.6 | 6.4 | 0.00 | 0.13 | 0.00 | 70 | 1021.8 |
| 20260902095157 | 16 | 157 | 0.0 | 3.2 | 0.00 | 0.13 | 0.00 | 69 | 1022.0 |
| 20260902094257 | 15 | 157 | 0.0 | 3.2 | 0.00 | 0.13 | 0.00 | 70 | 1022.0 |
| 20260902093357 | 15 | 157 | 1.6 | 6.4 | 0.00 | 0.13 | 0.00 | 73 | 1022.0 |
| 20260902092457 | 14 | 157 | 0.0 | 3.2 | 0.00 | 0.13 | 0.00 | 77 | 1022.0 |
| 20260902091558 | 13 | 157 | 0.0 | 3.2 | 0.00 | 0.13 | 0.00 | 77 | 1021.7 |
| 20260902090909 | 13 | 157 | 0.0 | 6.4 | 0.00 | 0.13 | 0.00 | 75 | 1021.8 |
| 20260902085758 | 15 | 157 | 1.6 | 6.4 | 0.00 | 0.13 | 0.00 | 72 | 1022.1 |
| 20260902085108 | 15 | 157 | 3.2 | 3.2 | 0.00 | 0.13 | 0.00 | 71 | 1022.0 |
| 20260902083958 | 14 | 157 | 1.6 | 3.2 | 0.00 | 0.13 | 0.00 | 74 | 1022.3 |
| 20260902083057 | 13 | 0 | 0.0 | 0.0 | 0.00 | 0.13 | 0.00 | 75 | 1022.3 |
| 20260902082157 | 13 | 157 | 0.0 | 3.2 | 0.00 | 0.13 | 0.00 | 77 | 1022.2 |
| 20260902081257 | 13 | 0 | 0.0 | 0.0 | 0.00 | 0.13 | 0.00 | 80 | 1022.2 |
| 20260902080358 | 12 | 0 | 0.0 | 0.0 | 0.00 | 0.15 | 0.00 | 78 | 1022.2 |
| 20260902075457 | 12 | 157 | 0.0 | 3.2 | 0.00 | 0.15 | 0.00 | 77 | 1022.3 |
| 20260902074810 | 13 | 157 | 0.0 | 3.2 | 0.00 | 0.15 | 0.00 | 78 | 1022.2 |
| 20260902073658 | 11 | 157 | 0.0 | 3.2 | 0.00 | 0.15 | 0.00 | 82 | 1022.4 |
| 20260902072757 | 11 | 0 | 0.0 | 0.0 | 0.00 | 0.15 | 0.00 | 85 | 1022.3 |
| 20260902071857 | 10 | 0 | 0.0 | 0.0 | 0.00 | 0.15 | 0.00 | 85 | 1022.2 |
| 20260902070958 | 10 | 157 | 0.0 | 3.2 | 0.00 | 0.15 | 0.00 | 86 | 1022.1 |
| 20260902070057 | 9 | 157 | 1.6 | 3.2 | 0.00 | 0.15 | 0.00 | 89 | 1022.0 |
| 20260902065158 | 8 | 157 | 0.0 | 3.2 | 0.00 | 0.15 | 0.00 | 93 | 1022.0 |
| 20260902064257 | 8 | 157 | 1.6 | 3.2 | 0.00 | 0.15 | 0.00 | 94 | 1022.1 |
| 20260902063358 | 9 | 0 | 0.0 | 0.0 | 0.00 | 0.15 | 0.00 | 96 | 1022.2 |
| 20260902062457 | 7 | 0 | 0.0 | 0.0 | 0.00 | 0.15 | 0.00 | 97 | 1022.0 |
| 20260902061557 | 7 | 0 | 0.0 | 0.0 | 0.00 | 0.15 | 0.00 | 97 | 1022.0 |
| 20260902060910 | 7 | 157 | 0.0 | 3.2 | 0.00 | 0.15 | 0.00 | 98 | 1021.9 |
| 20260902055757 | 6 | 0 | 0.0 | 0.0 | 0.00 | 0.15 | 0.00 | 98 | 1021.8 |
| 20260902054858 | 6 | 0 | 0.0 | 0.0 | 0.00 | 0.15 | 0.00 | 98 | 1021.9 |
| 20260902053957 | 6 | 0 | 0.0 | 0.0 | 0.00 | 0.15 | 0.00 | 98 | 1021.9 |
| 20260902053058 | 6 | 0 | 0.0 | 0.0 | 0.00 | 0.15 | 0.00 | 98 | 1022.2 |
| 20260902052157 | 5 | 0 | 0.0 | 0.0 | 0.00 | 0.15 | 0.00 | 98 | 1021.8 |
| 20260902051257 | 6 | 0 | 0.0 | 0.0 | 0.00 | 0.15 | 0.00 | 98 | 1022.1 |
| 20260902050357 | 5 | 0 | 0.0 | 0.0 | 0.00 | 0.15 | 0.00 | 98 | 1021.9 |
| 20260902045457 | 5 | 0 | 0.0 | 0.0 | 0.00 | 0.15 | 0.00 | 98 | 1022.0 |
| 20260902044558 | 5 | 0 | 0.0 | 0.0 | 0.00 | 0.15 | 0.00 | 98 | 1021.8 |
| 20260902043658 | 3 | 0 | 0.0 | 0.0 | 0.00 | 0.15 | 0.00 | 98 | 1021.7 |
| 20260902042757 | 3 | 0 | 0.0 | 0.0 | 0.00 | 0.15 | 0.00 | 97 | 1021.8 |
| 20260902041857 | 3 | 0 | 0.0 | 0.0 | 0.00 | 0.15 | 0.00 | 97 | 1021.7 |
| 20260902040958 | 3 | 0 | 0.0 | 0.0 | 0.00 | 0.15 | 0.00 | 97 | 1021.7 |
| 20260902040058 | 3 | 0 | 0.0 | 0.0 | 0.00 | 0.15 | 0.00 | 97 | 1021.6 |
| 20260902035157 | 3 | 0 | 0.0 | 0.0 | 0.00 | 0.15 | 0.00 | 97 | 1021.4 |
| 20260902034257 | 3 | 0 | 0.0 | 0.0 | 0.00 | 0.15 | 0.00 | 97 | 1021.7 |
| 20260902033357 | 3 | 0 | 0.0 | 0.0 | 0.00 | 0.15 | 0.00 | 96 | 1021.5 |
| 20260902032707 | 3 | 0 | 0.0 | 0.0 | 0.00 | 0.15 | 0.00 | 96 | 1021.6 |
| 20260902031558 | 3 | 0 | 0.0 | 0.0 | 0.00 | 0.15 | 0.00 | 95 | 1021.6 |
| 20260902030912 | 3 | 0 | 0.0 | 0.0 | 0.00 | 0.15 | 0.00 | 95 | 1021.5 |
| 20260902030010 | 4 | 0 | 0.0 | 0.0 | 0.00 | 0.15 | 0.00 | 95 | 1021.6 |
| 20260902024857 | 4 | 0 | 0.0 | 0.0 | 0.00 | 0.15 | 0.00 | 95 | 1021.3 |
| 20260902023957 | 4 | 0 | 0.0 | 0.0 | 0.00 | 0.15 | 0.00 | 94 | 1021.5 |
| 20260902023058 | 5 | 0 | 0.0 | 0.0 | 0.00 | 0.15 | 0.00 | 94 | 1021.1 |
| 20260902022157 | 5 | 0 | 0.0 | 0.0 | 0.00 | 0.15 | 0.00 | 94 | 1021.5 |
| 20260902021257 | 5 | 0 | 0.0 | 0.0 | 0.00 | 0.15 | 0.00 | 94 | 1021.2 |
| 20260902020357 | 6 | 0 | 0.0 | 0.0 | 0.00 | 0.15 | 0.00 | 93 | 1021.4 |
| 20260902014605 | 6 | 0 | 0.0 | 0.0 | 0.00 | 0.15 | 0.00 | 92 | 1021.3 |
| 20260902013706 | 6 | 0 | 0.0 | 0.0 | 0.00 | 0.15 | 0.00 | 92 | 1021.1 |
| 20260902012807 | 6 | 0 | 0.0 | 0.0 | 0.00 | 0.15 | 0.00 | 92 | 1021.0 |
| 20260902011906 | 6 | 0 | 0.0 | 0.0 | 0.00 | 0.15 | 0.00 | 92 | 1020.6 |
| 20260902011005 | 6 | 0 | 0.0 | 0.0 | 0.00 | 0.15 | 0.00 | 92 | 1020.7 |
| 20260902010106 | 6 | 0 | 0.0 | 0.0 | 0.00 | 0.15 | 0.00 | 93 | 1020.6 |
| 20260902005206 | 6 | 0 | 0.0 | 0.0 | 0.00 | 0.15 | 0.00 | 93 | 1020.5 |
| 20260902004307 | 6 | 0 | 0.0 | 0.0 | 0.00 | 0.15 | 0.00 | 94 | 1020.4 |
| 20260902003405 | 6 | 0 | 0.0 | 0.0 | 0.00 | 0.15 | 0.00 | 93 | 1020.3 |
| 20260902002507 | 6 | 0 | 0.0 | 0.0 | 0.00 | 0.15 | 0.00 | 93 | 1020.3 |
| 20260902001607 | 6 | 0 | 0.0 | 0.0 | 0.00 | 0.15 | 0.00 | 92 | 1020.4 |
| 20260902000706 | 6 | 0 | 0.0 | 0.0 | 0.00 | 0.15 | 0.00 | 91 | 1020.4 |
| 20260901235807 | 6 | 0 | 0.0 | 0.0 | 0.00 | 0.15 | 0.00 | 90 | 1020.3 |
| 20260901234905 | 7 | 0 | 0.0 | 0.0 | 0.00 | 0.15 | 0.00 | 90 | 1020.4 |
| 20260901234005 | 7 | 0 | 0.0 | 0.0 | 0.00 | 0.15 | 0.00 | 90 | 1020.2 |
| 20260901233105 | 7 | 0 | 0.0 | 0.0 | 0.00 | 0.15 | 0.00 | 89 | 1020.0 |
| 20260901232205 | 7 | 0 | 0.0 | 0.0 | 0.00 | 0.15 | 0.00 | 89 | 1020.1 |
| 20260901231307 | 7 | 0 | 0.0 | 0.0 | 0.00 | 0.15 | 0.00 | 87 | 1020.2 |
| 20260901230408 | 8 | 0 | 0.0 | 0.0 | 0.00 | 0.15 | 0.00 | 86 | 1020.2 |
| 20260901225507 | 8 | 0 | 0.0 | 0.0 | 0.00 | 0.15 | 0.15 | 85 | 1020.3 |
| 20260901224605 | 9 | 0 | 0.0 | 0.0 | 0.00 | 0.15 | 0.15 | 86 | 1019.9 |
| 20260901223707 | 8 | 0 | 0.0 | 0.0 | 0.00 | 0.15 | 0.15 | 89 | 1019.8 |
| 20260901223020 | 8 | 0 | 0.0 | 0.0 | 0.00 | 0.15 | 0.15 | 90 | 1020.0 |
| 20260901221906 | 7 | 0 | 0.0 | 0.0 | 0.00 | 0.15 | 0.15 | 89 | 1019.9 |
| 20260901221006 | 7 | 0 | 0.0 | 0.0 | 0.00 | 0.15 | 0.15 | 89 | 1019.8 |
| 20260901220106 | 8 | 0 | 0.0 | 0.0 | 0.00 | 0.15 | 0.15 | 90 | 1020.2 |
| 20260901215206 | 7 | 0 | 0.0 | 0.0 | 0.00 | 0.15 | 0.15 | 90 | 1020.0 |
| 20260901214308 | 7 | 0 | 0.0 | 0.0 | 0.00 | 0.15 | 0.15 | 89 | 1019.9 |
| 20260901213405 | 7 | 0 | 0.0 | 0.0 | 0.00 | 0.15 | 0.15 | 89 | 1020.3 |
| 20260901212505 | 7 | 0 | 0.0 | 0.0 | 0.00 | 0.15 | 0.15 | 88 | 1020.2 |
| 20260901211607 | 7 | 0 | 0.0 | 0.0 | 0.00 | 0.15 | 0.15 | 88 | 1020.0 |
| 20260901210706 | 7 | 0 | 0.0 | 0.0 | 0.00 | 0.15 | 0.15 | 88 | 1019.9 |
| 20260901205811 | 7 | 0 | 0.0 | 0.0 | 0.00 | 0.15 | 0.15 | 88 | 1020.0 |
| 20260901205116 | 8 | 0 | 0.0 | 0.0 | 0.00 | 0.15 | 0.15 | 87 | 1019.9 |
| 20260901204006 | 8 | 0 | 0.0 | 0.0 | 0.00 | 0.15 | 0.15 | 86 | 1019.9 |
| 20260901203107 | 8 | 0 | 0.0 | 0.0 | 0.00 | 0.15 | 0.15 | 85 | 1019.9 |
| 20260901202206 | 8 | 0 | 0.0 | 0.0 | 0.00 | 0.15 | 0.15 | 84 | 1019.7 |
| 20260901201306 | 9 | 0 | 0.0 | 0.0 | 0.00 | 0.15 | 0.15 | 83 | 1019.6 |
| 20260901200407 | 10 | 0 | 0.0 | 0.0 | 0.00 | 0.15 | 0.15 | 83 | 1019.5 |
| 20260901195505 | 10 | 157 | 0.0 | 3.2 | 0.00 | 0.15 | 0.15 | 81 | 1019.4 |
| 20260901194606 | 10 | 157 | 0.0 | 3.2 | 0.00 | 0.15 | 0.15 | 82 | 1019.1 |
| 20260901193707 | 10 | 157 | 0.0 | 3.2 | 0.00 | 0.15 | 0.15 | 82 | 1019.0 |
| 20260901192805 | 10 | 0 | 0.0 | 0.0 | 0.00 | 0.15 | 0.15 | 80 | 1019.1 |
| 20260901191911 | 11 | 0 | 0.0 | 0.0 | 0.00 | 0.15 | 0.15 | 79 | 1019.0 |
| 20260901191006 | 11 | 0 | 0.0 | 0.0 | 0.00 | 0.15 | 0.15 | 79 | 1018.8 |
| 20260901190106 | 12 | 0 | 0.0 | 0.0 | 0.00 | 0.15 | 0.15 | 77 | 1018.7 |
| 20260901185206 | 12 | 0 | 0.0 | 0.0 | 0.00 | 0.15 | 0.15 | 76 | 1018.3 |
| 20260901184519 | 13 | 0 | 0.0 | 0.0 | 0.00 | 0.15 | 0.15 | 74 | 1018.3 |
| 20260901183410 | 15 | 157 | 0.0 | 3.2 | 0.00 | 0.15 | 0.15 | 72 | 1018.4 |
| 20260901182507 | 15 | 157 | 0.0 | 3.2 | 0.00 | 0.15 | 0.15 | 68 | 1018.1 |
| 20260901181606 | 16 | 157 | 1.6 | 3.2 | 0.00 | 0.15 | 0.15 | 66 | 1018.1 |
| 20260901180707 | 16 | 157 | 0.0 | 3.2 | 0.00 | 0.15 | 0.15 | 67 | 1017.9 |
| 20260901175807 | 16 | 157 | 1.6 | 3.2 | 0.00 | 0.15 | 0.15 | 63 | 1017.7 |
| 20260901174907 | 17 | 157 | 1.6 | 6.4 | 0.00 | 0.15 | 0.15 | 62 | 1017.8 |
| 20260901174008 | 17 | 157 | 3.2 | 6.4 | 0.00 | 0.15 | 0.15 | 59 | 1017.7 |
| 20260901173107 | 17 | 157 | 0.0 | 6.4 | 0.00 | 0.15 | 0.15 | 61 | 1017.7 |
| 20260901172205 | 17 | 157 | 1.6 | 6.4 | 0.00 | 0.15 | 0.15 | 56 | 1017.5 |
| 20260901171305 | 18 | 157 | 1.6 | 9.7 | 0.00 | 0.15 | 0.15 | 57 | 1017.4 |
| 20260901170405 | 18 | 157 | 3.2 | 6.4 | 0.00 | 0.15 | 0.15 | 54 | 1017.1 |
| 20260901165717 | 18 | 157 | 3.2 | 6.4 | 0.00 | 0.15 | 0.15 | 55 | 1017.2 |
| 20260901164605 | 18 | 157 | 3.2 | 6.4 | 0.00 | 0.15 | 0.15 | 56 | 1017.1 |
| 20260901163705 | 18 | 157 | 3.2 | 6.4 | 0.00 | 0.15 | 0.15 | 55 | 1017.0 |
| 20260901162805 | 18 | 157 | 3.2 | 6.4 | 0.00 | 0.15 | 0.15 | 58 | 1016.9 |
| 20260901161905 | 18 | 157 | 3.2 | 6.4 | 0.00 | 0.15 | 0.15 | 61 | 1016.9 |
| 20260901161007 | 18 | 157 | 3.2 | 6.4 | 0.00 | 0.15 | 0.15 | 64 | 1016.8 |
| 20260901160321 | 18 | 157 | 3.2 | 6.4 | 0.00 | 0.15 | 0.15 | 64 | 1016.6 |
| 20260901155206 | 19 | 157 | 3.2 | 6.4 | 0.00 | 0.15 | 0.15 | 65 | 1016.7 |
| 20260901154307 | 19 | 157 | 3.2 | 6.4 | 0.00 | 0.15 | 0.15 | 64 | 1016.6 |
| 20260901153407 | 19 | 157 | 3.2 | 6.4 | 0.00 | 0.15 | 0.15 | 66 | 1016.6 |
| 20260901152506 | 19 | 157 | 3.2 | 6.4 | 0.00 | 0.15 | 0.15 | 67 | 1016.4 |
| 20260901151605 | 19 | 157 | 3.2 | 6.4 | 0.00 | 0.15 | 0.15 | 69 | 1016.2 |
| 20260901150705 | 18 | 157 | 3.2 | 6.4 | 0.00 | 0.15 | 0.15 | 71 | 1016.3 |
| 20260901145807 | 19 | 157 | 3.2 | 6.4 | 0.00 | 0.15 | 0.15 | 74 | 1016.3 |
| 20260901144906 | 18 | 157 | 3.2 | 3.2 | 0.00 | 0.15 | 0.15 | 75 | 1016.5 |
| 20260901144005 | 18 | 157 | 1.6 | 3.2 | 0.00 | 0.15 | 0.15 | 79 | 1016.3 |
| 20260901143106 | 17 | 157 | 1.6 | 3.2 | 0.00 | 0.15 | 0.15 | 80 | 1016.4 |
| 20260901142205 | 17 | 156 | 1.6 | 6.4 | 0.03 | 0.15 | 0.15 | 81 | 1016.2 |
| 20260901141305 | 17 | 154 | 3.2 | 6.4 | 0.03 | 0.15 | 0.15 | 84 | 1016.1 |
| 20260901140616 | 17 | 157 | 1.6 | 3.2 | 0.05 | 0.15 | 0.15 | 86 | 1015.8 |
| 20260901135719 | 17 | 157 | 0.0 | 6.4 | 0.13 | 0.15 | 0.15 | 87 | 1015.6 |
| 20260901134607 | 17 | 157 | 1.6 | 3.2 | 0.13 | 0.15 | 0.15 | 89 | 1015.7 |
| 20260901133919 | 17 | 157 | 1.6 | 3.2 | 0.13 | 0.15 | 0.15 | 91 | 1015.7 |